Location: Buckenweiler
(49.0667°N, 10.2500°E)
Time: 06:11:19
(UTC+00:00)

BREEZE-M DEB (TANK) - Pass Details

Date: 18 January 2026
Orbit: 313 x 16555 km, 49.5° (Epoch: 16 February)

Event Time Altitude Azimuth Distance (km) Brightness Sun altitude
Exits shadow 05:05:54 31° 242° (WSW) 1,263 4.2 -19.1°
Maximum altitude 05:07:21 40° 201° (SSW) 1,308 4.6 -18.9°
Drops below altitude 10° 05:17:22 10° 137° (SE) 5,306 8.6 -17.3°
Sets 05:25:36 0° 133° (SE) 8,517 9.9 -16.0°
